Regional Weather Roundup
Issued by NWS

Home | Current Version | Previous Version | Graphics & Text | Print | Product List | Glossary On
Versions: 1 2 3 4 5 6 7 8 9 10 11 12 13 14 15 16 17 18 19 20 21 22 23 24 25 26 27 28 29 30 31 32 33 34 35 36 37 38 39 40 41 42 43 44 45 46 47 48 49 50
000
ASUS43 KMKX 261711
RWRWI

WISCONSIN REGIONAL WEATHER ROUNDUP
NATIONAL WEATHER SERVICE MILWAUKEE/SULLIVAN WI
1200 PM CDT FRI MAY 26 2017

NOTE: "FAIR" INDICATES FEW OR NO CLOUDS BELOW 12,000 FEET WITH NO
SIGNIFICANT WEATHER AND/OR OBSTRUCTIONS TO VISIBILITY.

WIZ001-002-006>008-014>016-023>028-261800-
NORTHWEST WISCONSIN

CITY           SKY/WX    TMP DP  RH WIND       PRES   REMARKS
SUPERIOR ARPT  NOT AVBL
ASHLAND        CLOUDY    54  50  86 N7        29.76S
HAYWARD        CLOUDY    68  52  56 S8        29.76R
SIREN          CLOUDY    68  54  61 S7        29.75R
CUMBERLAND     CLOUDY    64  54  68 S9        29.77R
RICE LAKE      CLOUDY    68  53  58 S9        29.77S
CHETEK         CLOUDY    68  56  64 S8        29.76S
LADYSMITH      CLOUDY    68  55  62 S8        29.79F
EAU CLAIRE     CLOUDY    72  53  51 S9        29.75F
MENOMONIE      CLOUDY    72  54  53 S9        29.76S
NEW RICHMOND   CLOUDY    65  54  65 SW8       29.77R
OSCEOLA        CLOUDY    67  55  66 S8        29.78R
$$

WIZ003>005-009-010-017-018-261800-
NORTH CENTRAL WISCONSIN

CITY           SKY/WX    TMP DP  RH WIND       PRES   REMARKS
MANITOWISH WTR CLOUDY    63  55  76 S3        29.81R
ARBOR VITAE    CLOUDY    64  53  65 S10       29.81S
WOODRUFF       CLOUDY    64  53  65 S10       29.81S
RHINELANDER    CLOUDY    67  54  63 S7        29.83S
EAGLE RIVER    CLOUDY    65  51  61 SE6       29.82S
LAND O LAKES   CLOUDY    67  49  51 S7        29.83R
PHILLIPS       CLOUDY    67  53  61 S8        29.79S
TOMAHAWK       CLOUDY    67  54  63 S3        29.81F
MEDFORD        CLOUDY    65  55  67 S9        29.81S
MERRILL        CLOUDY    67  56  67 S7        29.82S
$$

WIZ029-030-035-036-043>047-261800-
CENTRAL WISCONSIN

CITY           SKY/WX    TMP DP  RH WIND       PRES   REMARKS
WAUSAU         CLOUDY    66  55  67 S8        29.81R
MOSINEE        PTSUNNY   64  57  77 SE8       29.83S
MARSHFIELD     CLOUDY    69  56  62 S10       29.80S
STEVENS POINT  CLOUDY    65  56  72 SE8       29.83R
WAUPACA        CLOUDY    69  55  61 SE8       29.83S
WAUTOMA        CLOUDY    70  56  61 S8        29.82S
WISC RAPIDS    PTSUNNY   71  56  58 S8        29.82S
CAMP DOUGLAS   PTSUNNY   72  55  56 S10       29.79S
$$

WIZ011>013-019>022-031-037>040-048>050-261800-
NORTHEAST WISCONSIN

CITY           SKY/WX    TMP DP  RH WIND       PRES   REMARKS
ANTIGO         CLOUDY    66  56  69 SE7       29.83F
SHAWANO        CLOUDY    71  56  60 SE7       29.84S
OCONTO         CLOUDY    63  55  73 SE5       29.84S
STURGEON BAY   MOSUNNY   64  52  64 E9        29.86R
GREEN BAY      MOSUNNY   68  58  70 SE5       29.83F
MANITOWOC      MOSUNNY   57  51  80 SE8       29.87S
APPLETON       PTSUNNY   64  50  59 E8        29.83
CLINTONVILLE   CLOUDY    68  55  64 SE7       29.83S
OSHKOSH        MOSUNNY   65  55  70 E8        29.82F
$$

WIZ032>034-041-042-053>061-261800-
SOUTHWEST WISCONSIN

CITY           SKY/WX    TMP DP  RH WIND       PRES   REMARKS
LA CROSSE      PTSUNNY   72  56  57 S13       29.78S
SPARTA         CLOUDY    70  55  59 S8        29.80R
VIROQUA        CLOUDY    65  55  68 MISG      29.81S
BOSCOBEL       CLOUDY    67  57  70 CALM      29.80R
PRAIRIE DU CHI CLOUDY    64  55  72 E3        29.79S
PLATTEVILLE    CLOUDY    65  60  82 SE13      29.80S
$$

WIZ056-057-062-063-064-067-068-261800-
SOUTH CENTRAL WISCONSIN

CITY           SKY/WX    TMP DP  RH WIND       PRES   REMARKS
REEDSBURG      CLOUDY    68  56  65 S8        29.80S
BARABOO/DELLS  CLOUDY    67  55  65 SE10      29.81S
LONE ROCK      CLOUDY    69  56  62 SE7       29.79S
MINERAL POINT  CLOUDY    64  61  88 CALM      29.80S
MADISON        CLOUDY    68  57  68 SE10      29.80F
MIDDLETON      CLOUDY    69  57  66 E8        29.81S
WATERTOWN      CLOUDY    67  56  67 SE9       29.81F
MONROE         CLOUDY    64  54  68 SE8       29.80S
JANESVILLE     MOSUNNY   70  55  60 SE13      29.80F
$$

WIZ051-052-058>065-066-070>072-261800-
SOUTHEAST WISCONSIN

CITY           SKY/WX    TMP DP  RH WIND       PRES   REMARKS
MILWAUKEE      PTSUNNY   60  54  80 E8        29.86F
WAUKESHA       SUNNY     63  54  72 E13       29.85F
MILWAUKEE/TIMM PTSUNNY   64  48  55 E8        29.86F
RACINE         PTSUNNY   59  51  75 E9        29.86F
KENOSHA        PTSUNNY   62  53  72 E10       29.84F
FOND DU LAC    MOSUNNY   68  54  60 SE12      29.83F
SHEBOYGAN      CLOUDY    61  55  81 S6        29.86F
WEST BEND      CLOUDY    63  54  72 E7        29.85F
JUNEAU         CLOUDY    67  57  69 E9        29.83F
$$

LSZ147-162-261800-
LAKE SUPERIOR

STATION/POSITION TIME  TEMP    WIND        PRES    WAVE
                       AIR SEA DIR/SP/G            HT/PER
                 (UTC) (F)     (DEG/KT/KT) (MB)    (FT/S)
W MID LAKE BUOY  1550   43 37  150/  2/  4 1009.2R   1
DEVILS ISLAND    1600   46      90/  9/  9 1008.1R
PORT WING        1640   43      10/  6/  7 1007.8S
SAXON HARBOR     1640   50     340/  1/  2 1007.8S
$$

LMZ867-665-643>646-261800-
LAKE MICHIGAN

STATION/POSITION TIME  TEMP    WIND        PRES    WAVE
                       AIR SEA DIR/SP/G            HT/PER
                 (UTC) (F)     (DEG/KT/KT) (MB)    (FT/S)
CHAMBERS ISLAND  1640   60     350/  4/  6 1010.5S
N MID LAKE BUOY  1650   45 43  200/  8/  8 1012.0S   0
NORTHPORT PIER   1640   51     110/  6/  7 1010.8F
KEWAUNEE LAKESHO 1648   48     160/  7/  8 1011.0R
SHEBOYGAN LAKESH 1700   47     120/  4/  5 1011.4F
PORT WASHINGTON  1630   49     110/  2/  4 1012.5S
ATWATER BUOY     1609   47      90/  2/  4 1011.8S
MILWAUKEE LAKESH 1650   49      80/  3/  3   N/A
S MID LAKE BUOY  1550   47 46  160/  4/  6 1012.2F   1/ 4
KENOSHA   LAKESH 1700   49      CALM  /  2 1010.8
$$

TC  - TEMPERATURE IN CELSIUS
VSB - VISIBILITY IN STATUTE MILES
WCI - WIND CHILL INDEX
HX  - HEAT INDEX




USA.gov is the U.S. government's official web portal to all federal, state and local government web resources and services.